Flag for U.S.A. Weather past 2 weeks in Kalamazoo, Michigan, U.S.A.

Now
74 °F

Sunny.


Feels Like: 76 °F
Forecast: 58 / 82 °F
Wind: 3 mph from Southeast

Location: Kalamazoo / Battle Creek International Airport

Current Time: Aug 1, 2014 at 8:27:26 PM

Latest Report: Aug 1, 2014 at 7:53 PM


Visibility: 10 mi

Pressure: 30.09 "Hg

Humidity: 67%

Dew point: 62 °F

Location of KalamazooLocation

Historic Weather in Kalamazoo — Graph

°F

Kalamazoo temperature yesterday

Maximum temperature yesterday: 80 °F (at 2:53 PM)
Minimum temperature yesterday: 54 °F (at 4:53 AM)
Average temperature yesterday: 68 °F

Past Weeks' High & Low Weather Summary

 TemperatureHumidityPressure
High85 °F (Jul 22, 12:53 PM)97% (Jul 27, 6:53 AM)30.23 "Hg (Jul 27, 6:53 AM)
Low50 °F (Jul 29, 2:53 AM)39% (Jul 18, 1:53 PM)29.63 "Hg (Jul 27, 3:53 PM)
Average68 °F70%30.02 "Hg
* Reported Jul 17 6:53 PM — Aug 1 6:53 PM, Kalamazoo, Weather by CustomWeather, © 2014

Note: Actual official high and low records may vary slightly from our data, if they occured in-between our weather recording intervals... More about our weather records

Advertising

Kalamazoo weather history for previous 24 hours

 ConditionsComfort  
Time TempWeatherWind HumidityBarometerVisibility
6:53 PM
Aug 1
74 °FSunny.No wind64%30.07 "Hg10 mi
5:53 PM68 °FLight rain. More clouds than sun.9 mph70%30.09 "Hg10 mi
5:01 PM74 °FThunderstorms. Sunny.5 mph69%30.09 "Hg10 mi
3:53 PM78 °FPartly sunny.9 mph50%30.08 "Hg10 mi
2:53 PM79 °FPartly sunny.8 mph48%30.07 "Hg10 mi
1:53 PM82 °FBroken clouds.8 mph43%30.09 "Hg10 mi
12:53 PM80 °FScattered clouds.12 mph45%30.09 "Hg10 mi
11:53 AM80 °FPassing clouds.10 mph49%30.09 "Hg10 mi
10:53 AM77 °FSunny.7 mph60%30.10 "Hg10 mi
9:53 AM73 °FSunny.7 mph69%30.09 "Hg7 mi
8:53 AM68 °FSunny.5 mph82%30.09 "Hg7 mi
7:53 AM63 °FFog.No wind90%30.09 "Hg5 mi
6:53 AM61 °FFog.3 mph90%30.08 "Hg4 mi
5:53 AM60 °FFog.6 mph90%30.06 "Hg6 mi
4:53 AM62 °FClear.3 mph86%30.05 "Hg7 mi
3:53 AM62 °FClear.5 mph86%30.04 "Hg7 mi
2:53 AM63 °FClear.7 mph84%30.04 "Hg9 mi
1:53 AM64 °FClear.7 mph84%30.05 "Hg9 mi
12:53 AM63 °FClear.6 mph84%30.05 "Hg8 mi
11:53 PM
Jul 31
65 °FPassing clouds.6 mph81%30.04 "Hg10 mi
10:53 PM68 °FClear.3 mph73%30.04 "Hg10 mi
9:53 PM69 °FSunny.3 mph70%30.03 "Hg10 mi
8:53 PM71 °FSunny.5 mph63%30.03 "Hg10 mi
Weather by CustomWeather, © 2014

See weather overviewHow to use our weather pages